Tiempo cada hora Caucaia

Hoy, 20 Enero, Miércoles

Tiempo Temperatura Precipitaciones Viento Presión Humedad
00:00 +27°C° 0.1 mm 4 mps 756 mmHg 83%
01:00 +27°C° 0 mm 3 mps 755 mmHg 83%
02:00 +27°C° 0 mm 3 mps 755 mmHg 83%
03:00 +27°C° 0 mm 3 mps 754 mmHg 84%
04:00 +27°C° 0.4 mm 3 mps 755 mmHg 84%
05:00 +27°C° 0.4 mm 3 mps 755 mmHg 85%
06:00 +27°C° 0.4 mm 3 mps 755 mmHg 85%
07:00 +28°C° 0.5 mm 3 mps 755 mmHg 79%
08:00 +29°C° 0.5 mm 4 mps 756 mmHg 73%
09:00 +30°C° 0.5 mm 4 mps 756 mmHg 67%
10:00 +32°C° 0.2 mm 4 mps 756 mmHg 65%
11:00 +32°C° 0.2 mm 5 mps 756 mmHg 64%
12:00 +33°C° 0.2 mm 5 mps 755 mmHg 62%
13:00 +33°C° 0.3 mm 5 mps 755 mmHg 63%
14:00 +32°C° 0.3 mm 5 mps 754 mmHg 64%
15:00 +32°C° 0.3 mm 5 mps 754 mmHg 65%
16:00 +30°C° 0.2 mm 4 mps 754 mmHg 68%
17:00 +29°C° 0.2 mm 4 mps 754 mmHg 72%
18:00 +29°C° 0.2 mm 3 mps 754 mmHg 76%
19:00 +28°C° 0.1 mm 3 mps 755 mmHg 78%
20:00 +28°C° 0.1 mm 3 mps 755 mmHg 79%
21:00 +28°C° 0.1 mm 3 mps 756 mmHg 80%
22:00 +28°C° 0 mm 3 mps 755 mmHg 82%
23:00 +27°C° 0 mm 4 mps 755 mmHg 83%

Mañana, 21 Enero, Jueves

Tiempo Temperatura Precipitaciones Viento Presión Humedad
00:00 +27°C° 0 mm 4 mps 755 mmHg 84%
01:00 +27°C° 0.1 mm 4 mps 755 mmHg 84%
02:00 +27°C° 0.1 mm 4 mps 754 mmHg 84%
03:00 +27°C° 0.1 mm 4 mps 754 mmHg 85%
04:00 +27°C° 0.2 mm 4 mps 754 mmHg 85%
05:00 +27°C° 0.2 mm 3 mps 755 mmHg 86%
06:00 +26°C° 0.2 mm 3 mps 755 mmHg 87%
07:00 +28°C° 0.4 mm 3 mps 756 mmHg 81%
08:00 +29°C° 0.4 mm 4 mps 756 mmHg 74%
09:00 +30°C° 0.4 mm 4 mps 757 mmHg 68%
10:00 +32°C° 0.4 mm 4 mps 757 mmHg 66%
11:00 +33°C° 0.4 mm 5 mps 756 mmHg 63%
12:00 +33°C° 0.4 mm 5 mps 756 mmHg 60%
13:00 +33°C° 0.3 mm 5 mps 755 mmHg 61%
14:00 +33°C° 0.3 mm 5 mps 755 mmHg 62%
15:00 +33°C° 0.3 mm 5 mps 754 mmHg 62%
16:00 +32°C° 0.1 mm 4 mps 754 mmHg 67%
17:00 +30°C° 0.1 mm 4 mps 755 mmHg 72%
18:00 +29°C° 0.1 mm 4 mps 755 mmHg 77%
19:00 +28°C° 0.1 mm 4 mps 755 mmHg 79%
20:00 +28°C° 0.1 mm 4 mps 756 mmHg 82%
21:00 +28°C° 0.1 mm 4 mps 756 mmHg 84%
22:00 +28°C° 0.3 mm 4 mps 756 mmHg 84%
23:00 +27°C° 0.3 mm 4 mps 756 mmHg 85%

Pasado mañana, 22 Enero, Viernes

Tiempo Temperatura Precipitaciones Viento Presión Humedad
00:00 +27°C° 0.3 mm 3 mps 756 mmHg 85%
01:00 +27°C° 0.4 mm 3 mps 756 mmHg 86%
02:00 +27°C° 0.4 mm 3 mps 755 mmHg 87%
03:00 +27°C° 0.4 mm 3 mps 755 mmHg 88%
04:00 +26°C° 0.3 mm 3 mps 756 mmHg 88%
05:00 +26°C° 0.3 mm 3 mps 756 mmHg 88%
06:00 +26°C° 0.3 mm 3 mps 756 mmHg 89%
07:00 +27°C° 0.2 mm 4 mps 757 mmHg 82%
08:00 +29°C° 0.2 mm 4 mps 757 mmHg 76%
09:00 +30°C° 0.2 mm 4 mps 758 mmHg 70%
10:00 +32°C° 0.2 mm 4 mps 757 mmHg 65%
11:00 +33°C° 0.2 mm 4 mps 757 mmHg 61%
12:00 +34°C° 0.2 mm 5 mps 757 mmHg 56%
13:00 +34°C° 0 mm 5 mps 756 mmHg 55%
14:00 +34°C° 0 mm 5 mps 755 mmHg 54%
15:00 +34°C° 0 mm 5 mps 755 mmHg 53%
16:00 +33°C° 0 mm 4 mps 755 mmHg 59%
17:00 +30°C° 0 mm 3 mps 755 mmHg 65%
18:00 +29°C° 0 mm 3 mps 755 mmHg 71%
19:00 +29°C° 0.2 mm 3 mps 756 mmHg 75%
20:00 +28°C° 0.2 mm 3 mps 756 mmHg 79%
21:00 +28°C° 0.2 mm 3 mps 757 mmHg 83%
22:00 +27°C° 0.2 mm 3 mps 756 mmHg 84%
23:00 +27°C° 0.2 mm 3 mps 756 mmHg 84%

23 Enero, Sábado

Tiempo Temperatura Precipitaciones Viento Presión Humedad
00:00 +27°C° 0.2 mm 3 mps 756 mmHg 84%
01:00 +27°C° 0.4 mm 3 mps 755 mmHg 85%
02:00 +27°C° 0.4 mm 3 mps 755 mmHg 85%
03:00 +27°C° 0.4 mm 3 mps 755 mmHg 86%
04:00 +26°C° 1.2 mm 3 mps 755 mmHg 87%
05:00 +26°C° 1.2 mm 3 mps 755 mmHg 88%
06:00 +26°C° 1.2 mm 3 mps 755 mmHg 88%
07:00 +27°C° 0.9 mm 4 mps 756 mmHg 84%
08:00 +28°C° 0.9 mm 4 mps 756 mmHg 79%
09:00 +29°C° 0.9 mm 5 mps 757 mmHg 75%
10:00 +30°C° 1.3 mm 5 mps 757 mmHg 74%
11:00 +30°C° 1.3 mm 5 mps 756 mmHg 73%
12:00 +32°C° 1.3 mm 5 mps 756 mmHg 72%
13:00 +30°C° 1.2 mm 5 mps 755 mmHg 71%
14:00 +30°C° 1.2 mm 4 mps 755 mmHg 71%
15:00 +30°C° 1.2 mm 4 mps 754 mmHg 71%
16:00 +29°C° 0.4 mm 4 mps 754 mmHg 74%
17:00 +29°C° 0.4 mm 4 mps 755 mmHg 77%
18:00 +28°C° 0.4 mm 3 mps 755 mmHg 80%
19:00 +28°C° 0.2 mm 3 mps 755 mmHg 81%
20:00 +27°C° 0.2 mm 3 mps 756 mmHg 82%
21:00 +27°C° 0.2 mm 3 mps 756 mmHg 83%
22:00 +27°C° 0.1 mm 3 mps 756 mmHg 83%
23:00 +27°C° 0.1 mm 3 mps 756 mmHg 83%

24 Enero, Domingo

Tiempo Temperatura Precipitaciones Viento Presión Humedad
00:00 +27°C° 0.1 mm 4 mps 755 mmHg 83%
01:00 +27°C° 0 mm 4 mps 755 mmHg 84%
02:00 +27°C° 0 mm 4 mps 755 mmHg 85%
03:00 +27°C° 0 mm 4 mps 754 mmHg 85%
04:00 +27°C° 0.1 mm 3 mps 755 mmHg 85%
05:00 +27°C° 0.1 mm 3 mps 755 mmHg 85%
06:00 +27°C° 0.1 mm 3 mps 755 mmHg 85%
07:00 +28°C° 0.4 mm 3 mps 756 mmHg 80%
08:00 +29°C° 0.4 mm 4 mps 756 mmHg 76%
09:00 +30°C° 0.4 mm 4 mps 756 mmHg 71%
10:00 +32°C° 0.2 mm 4 mps 756 mmHg 66%
11:00 +33°C° 0.2 mm 5 mps 755 mmHg 61%
12:00 +34°C° 0.2 mm 5 mps 755 mmHg 56%
13:00 +34°C° 0.1 mm 5 mps 754 mmHg 56%
14:00 +34°C° 0.1 mm 5 mps 754 mmHg 55%
15:00 +34°C° 0.1 mm 5 mps 753 mmHg 55%
16:00 +32°C° 0 mm 4 mps 753 mmHg 60%
17:00 +30°C° 0 mm 4 mps 753 mmHg 66%
18:00 +29°C° 0 mm 3 mps 754 mmHg 71%
19:00 +28°C° 0 mm 3 mps 754 mmHg 74%
20:00 +28°C° 0 mm 3 mps 755 mmHg 78%
21:00 +28°C° 0 mm 3 mps 755 mmHg 81%
22:00 +27°C° 0 mm 3 mps 755 mmHg 82%
23:00 +27°C° 0 mm 3 mps 755 mmHg 83%

25 Enero, Lunes

Tiempo Temperatura Precipitaciones Viento Presión Humedad
00:00 +27°C° 0 mm 4 mps 754 mmHg 84%
01:00 +27°C° 0 mm 3 mps 754 mmHg 84%
02:00 +27°C° 0 mm 3 mps 754 mmHg 85%
03:00 +27°C° 0 mm 3 mps 753 mmHg 85%
04:00 +27°C° 0 mm 4 mps 754 mmHg 84%
05:00 +27°C° 0 mm 4 mps 754 mmHg 84%
06:00 +27°C° 0 mm 4 mps 754 mmHg 84%
07:00 +28°C° 0.1 mm 4 mps 755 mmHg 77%
08:00 +30°C° 0.1 mm 5 mps 755 mmHg 71%
09:00 +32°C° 0.1 mm 5 mps 756 mmHg 64%
10:00 +33°C° 0 mm 5 mps 755 mmHg 60%
11:00 +34°C° 0 mm 5 mps 755 mmHg 56%
12:00 +35°C° 0 mm 5 mps 755 mmHg 51%
13:00 +34°C° 0 mm 5 mps 754 mmHg 52%
14:00 +34°C° 0 mm 5 mps 753 mmHg 53%
15:00 +34°C° 0 mm 5 mps 753 mmHg 53%
16:00 +33°C° 0 mm 5 mps 753 mmHg 60%
17:00 +30°C° 0 mm 4 mps 753 mmHg 67%
18:00 +29°C° 0 mm 4 mps 753 mmHg 74%
19:00 +29°C° 0 mm 4 mps 754 mmHg 77%
20:00 +28°C° 0 mm 4 mps 754 mmHg 80%
21:00 +28°C° 0 mm 4 mps 754 mmHg 83%
22:00 +28°C° 0.1 mm 4 mps 754 mmHg 84%
23:00 +28°C° 0.1 mm 4 mps 754 mmHg 84%
Mostrar más